COSMOS 1275 DEB

Satellite information

Favourite Embed

Satellite Type and Status

DEBRISIN ORBIT

Key statistics

Satellite COSMOS 1275 DEB at a glance.

Uptime

16104

Days in orbit

Revolutions

≈ 13.9

Per day

Orbit

LEO

Low Earth Orbit

Inclination

83.0

Latest

Satellite identification and parameters

Extended collection of information and parameters for COSMOS 1275 DEB.

Object identification

Identified? True

Debris? True

Object name: COSMOS 1275 DEB

International designator: 1981-053PN

Object number (NORAD): 42102

Object ID (CCSDS): 42102

Country: COMMONWEALTH OF INDEPENDENT STATES (CIS)

Current information (Y/N): Y

RCS size: SMALL

Orbital parameters

Period: 103.732 minutes

Inclination: 83.0109 deg

SMA: 7313.118 km

Apoapsis: 990.312 km

Periapsis: 879.654 km

RAAN: 313.3851 deg

Eccentricy: 0.0075657

Argument of periapsis: 173.5405 deg

Mean anomaly: 186.6753 deg

Mean motion: 13.88189836 rev/day

Mean motion (dot): 0.00002058 rev/day2

B* drag term: 0.001672 1/REarth

Two-line elements (TLE)

Creation date: July 5, 2025, 5:45 p.m.

Reference frame: TEME

Reference center: EARTH

Epoch: July 5, 2025, 8:04 a.m. UTC

TLE line 0: 0 COSMOS 1275 DEB

TLE line 1: 1 42102U 81053PN 25186.33660922 .00002058 00000-0 16720-2 0 9992

TLE line 2: 2 42102 83.0109 313.3851 0075657 173.5405 186.6753 13.88189836586450

Live tracking on map

Real-time ground track for satellite COSMOS 1275 DEB.

In-orbit conjunctions

A list of the most updated potential collisions computed for object COSMOS 1275 DEB.

Target Orbit TCA Probability of collision Miss distance Type
COSMOS 1238 LEO 2025-06-14 06:05:31 0.0001742878 103.0 (m) PAYLOAD
FENGYUN 1C DEB SSO 2025-05-29 06:31:24 0.001191886 29.0 (m) DEBRIS
COSMOS 911 LEO 2025-03-30 12:11:33 0.0001111284 768.0 (m) PAYLOAD
CALSPHERE 1 SSO 2025-03-14 08:28:51 0.0005129544 251.0 (m) PAYLOAD
FENGYUN 1C DEB SSO 2024-12-19 21:07:38 0.0001389101 53.0 (m) DEBRIS

Associated space launch

Navigation satellite providing location information for the Tsiklon-B navigation system

COSMOS 1275 DEB was lifted into orbit during the mission ‘Kosmos-3M | Parus 27’, on board a Kosmos-3M space rocket.

The launch took place on June 4, 1981, 3:41 p.m. from 132/2.

For more information about the launch, click the button.

Launch to space Kosmos-3M | Parus 27
Kosmos-3M | Parus 27

Agency: N/A

Status: Launch Successful

Launch date: June 4, 1981, 3:41 p.m. UTC

Rocket: Kosmos-3M

Launch pad: 132/2

Location: Plesetsk Cosmodrome, Russian Federation

...

Latest news about this satellite

There are no fresh news available about this satellite. Check back as we update our databases every day.


Newsletter sign-up

Weekly statistics, charts and insights to help you stay on top of the space industry.